TAIP08 YSTW-YBOK

Flight info

Callsign TAIP08
Flight time 2h 2m
Altitude 7500
Route ARM/N0110F080 DCT YGLI/N0110F070 DCT YSPE/N0110F080 DCT YWCK DCT YTWB DCT GOW
Aircraft EC35/L-G/C

Departure

Time 2026-04-26 08:51
Airport Tamworth Airport (YSTW)

Arrival

Time 2026-04-26 10:54
Airport Oakey Army Aviation Centre (YBOK)
Time Latitude Longitude Altitude Speed Heading
2026-04-26 08:45 -31.08295 150.84712 1341 ft 0 kts 360°
2026-04-26 08:50 -31.08294 150.84712 1361 ft 0 kts 354°
2026-04-26 08:50 -31.08274 150.84720 1430 ft 9 kts 354°
2026-04-26 08:51 -31.07879 150.84926 1846 ft 47 kts 59°
2026-04-26 08:51 -31.07672 150.85277 2024 ft 64 kts 62°
2026-04-26 08:51 -31.07368 150.85790 2207 ft 80 kts 60°
2026-04-26 08:52 -31.07050 150.86306 2550 ft 77 kts 58°
2026-04-26 08:52 -31.06737 150.86805 2952 ft 74 kts 57°
2026-04-26 08:52 -31.06442 150.87261 3331 ft 68 kts 57°
2026-04-26 08:52 -31.06159 150.87696 3710 ft 66 kts 57°
2026-04-26 08:53 -31.05876 150.88124 4079 ft 68 kts 57°
2026-04-26 08:53 -31.05582 150.88569 4455 ft 71 kts 56°
2026-04-26 08:53 -31.05279 150.89019 4833 ft 72 kts 55°
2026-04-26 08:53 -31.04967 150.89480 5211 ft 73 kts 54°
2026-04-26 08:54 -31.04646 150.89949 5580 ft 76 kts 54°
2026-04-26 08:54 -31.04308 150.90438 5956 ft 78 kts 55°
2026-04-26 08:54 -31.03960 150.90940 6334 ft 81 kts 55°
2026-04-26 08:54 -31.03600 150.91456 6717 ft 83 kts 56°
2026-04-26 08:55 -31.03230 150.91983 7074 ft 84 kts 55°
2026-04-26 08:55 -31.02845 150.92525 7295 ft 95 kts 54°
2026-04-26 08:55 -31.02411 150.93127 7415 ft 97 kts 52°
2026-04-26 08:55 -31.01975 150.93717 7462 ft 95 kts 53°
2026-04-26 08:56 -31.01541 150.94303 7487 ft 96 kts 53°
2026-04-26 08:56 -31.01253 150.94692 7495 ft 95 kts 53°
2026-04-26 08:56 -31.00674 150.95480 7498 ft 98 kts 54°
2026-04-26 08:56 -31.00214 150.96122 7495 ft 111 kts 54°
2026-04-26 08:57 -30.99705 150.96830 7509 ft 113 kts 52°
2026-04-26 08:57 -30.99195 150.97527 7509 ft 112 kts 53°
2026-04-26 08:57 -30.98689 150.98222 7504 ft 112 kts 53°
2026-04-26 08:57 -30.98190 150.98910 7518 ft 112 kts 55°
2026-04-26 08:58 -30.97685 150.99610 7517 ft 113 kts 53°
2026-04-26 08:58 -30.97178 151.00310 7516 ft 113 kts 56°
2026-04-26 08:58 -30.96674 151.01008 7514 ft 112 kts 54°
2026-04-26 08:58 -30.96169 151.01710 7517 ft 113 kts 53°
2026-04-26 08:59 -30.95663 151.02413 7515 ft 113 kts 56°
2026-04-26 08:59 -30.95165 151.03101 7514 ft 112 kts 56°
2026-04-26 08:59 -30.94664 151.03797 7512 ft 112 kts 54°
2026-04-26 08:59 -30.94163 151.04491 7511 ft 112 kts 52°
2026-04-26 09:00 -30.93661 151.05186 7512 ft 112 kts 51°
2026-04-26 09:00 -30.93159 151.05880 7512 ft 111 kts 52°
2026-04-26 09:00 -30.92666 151.06562 7510 ft 112 kts 52°
2026-04-26 09:00 -30.92166 151.07255 7511 ft 112 kts 51°
2026-04-26 09:01 -30.91663 151.07951 7510 ft 111 kts 51°
2026-04-26 09:01 -30.91164 151.08641 7511 ft 111 kts 52°
2026-04-26 09:01 -30.90664 151.09332 7511 ft 112 kts 51°
2026-04-26 09:01 -30.90162 151.10028 7509 ft 113 kts 51°
2026-04-26 09:02 -30.89666 151.10717 7515 ft 112 kts 51°
2026-04-26 09:02 -30.89166 151.11406 7515 ft 111 kts 51°
2026-04-26 09:02 -30.88666 151.12097 7513 ft 111 kts 51°
2026-04-26 09:02 -30.88165 151.12791 7512 ft 112 kts 52°
2026-04-26 09:03 -30.87664 151.13485 7511 ft 112 kts 52°
2026-04-26 09:03 -30.87171 151.14168 7507 ft 111 kts 52°
2026-04-26 09:03 -30.86671 151.14861 7509 ft 112 kts 51°
2026-04-26 09:03 -30.86169 151.15555 7509 ft 112 kts 52°
2026-04-26 09:04 -30.85668 151.16249 7509 ft 112 kts 51°
2026-04-26 09:04 -30.85146 151.16977 7503 ft 120 kts 51°
2026-04-26 09:04 -30.84615 151.17715 7502 ft 119 kts 51°
2026-04-26 09:04 -30.84082 151.18452 7502 ft 118 kts 51°
2026-04-26 09:05 -30.83558 151.19174 7499 ft 117 kts 52°
2026-04-26 09:05 -30.83030 151.19905 7497 ft 120 kts 52°
2026-04-26 09:05 -30.82468 151.20696 7507 ft 127 kts 50°
2026-04-26 09:05 -30.81902 151.21477 7497 ft 127 kts 51°
2026-04-26 09:06 -30.81333 151.22262 7505 ft 126 kts 51°
2026-04-26 09:06 -30.80764 151.23049 7504 ft 127 kts 51°
2026-04-26 09:06 -30.80193 151.23838 7506 ft 127 kts 51°
2026-04-26 09:06 -30.79626 151.24618 7509 ft 125 kts 52°
2026-04-26 09:07 -30.79071 151.25385 7505 ft 126 kts 51°
2026-04-26 09:07 -30.78504 151.26169 7504 ft 127 kts 52°
2026-04-26 09:07 -30.77935 151.26952 7503 ft 126 kts 52°
2026-04-26 09:07 -30.77372 151.27728 7503 ft 125 kts 51°
2026-04-26 09:08 -30.76814 151.28498 7503 ft 126 kts 52°
2026-04-26 09:08 -30.76246 151.29281 7504 ft 126 kts 51°
2026-04-26 09:08 -30.75681 151.30060 7504 ft 126 kts 52°
2026-04-26 09:08 -30.75116 151.30839 7503 ft 126 kts 52°
2026-04-26 09:09 -30.74550 151.31619 7504 ft 126 kts 51°
2026-04-26 09:09 -30.73984 151.32397 7502 ft 126 kts 52°
2026-04-26 09:09 -30.73421 151.33172 7502 ft 126 kts 51°
2026-04-26 09:09 -30.72863 151.33940 7504 ft 125 kts 51°
2026-04-26 09:10 -30.72314 151.34690 7500 ft 120 kts 52°
2026-04-26 09:10 -30.71775 151.35434 7501 ft 120 kts 52°
2026-04-26 09:10 -30.71234 151.36180 7501 ft 121 kts 52°
2026-04-26 09:10 -30.70692 151.36928 7502 ft 121 kts 51°
2026-04-26 09:11 -30.70151 151.37671 7502 ft 120 kts 51°
2026-04-26 09:11 -30.69621 151.38399 7504 ft 119 kts 51°
2026-04-26 09:11 -30.69082 151.39140 7504 ft 121 kts 51°
2026-04-26 09:11 -30.68541 151.39884 7505 ft 120 kts 52°
2026-04-26 09:12 -30.68001 151.40627 7502 ft 120 kts 51°
2026-04-26 09:12 -30.67469 151.41357 7500 ft 120 kts 52°
2026-04-26 09:12 -30.66928 151.42101 7499 ft 121 kts 51°
2026-04-26 09:12 -30.66384 151.42849 7502 ft 120 kts 51°
2026-04-26 09:13 -30.65845 151.43590 7500 ft 119 kts 51°
2026-04-26 09:13 -30.65306 151.44330 7502 ft 120 kts 51°
2026-04-26 09:13 -30.64767 151.45070 7498 ft 121 kts 51°
2026-04-26 09:13 -30.64226 151.45810 7501 ft 120 kts 51°
2026-04-26 09:14 -30.63697 151.46535 7500 ft 119 kts 51°
2026-04-26 09:14 -30.63159 151.47273 7500 ft 120 kts 51°
2026-04-26 09:14 -30.62620 151.48014 7500 ft 120 kts 51°
2026-04-26 09:14 -30.62082 151.48753 7500 ft 120 kts 51°
2026-04-26 09:15 -30.61545 151.49490 7500 ft 120 kts 51°
2026-04-26 09:15 -30.61008 151.50227 7498 ft 121 kts 52°
2026-04-26 09:15 -30.60472 151.50959 7500 ft 118 kts 52°
2026-04-26 09:15 -30.59942 151.51682 7499 ft 117 kts 53°
2026-04-26 09:16 -30.59594 151.52159 7498 ft 118 kts 52°
2026-04-26 09:16 -30.59065 151.52886 7498 ft 119 kts 52°
2026-04-26 09:16 -30.58360 151.53852 7499 ft 117 kts 52°
2026-04-26 09:16 -30.58009 151.54330 7503 ft 114 kts 52°
2026-04-26 09:17 -30.57314 151.55285 7500 ft 118 kts 52°
2026-04-26 09:17 -30.56958 151.55773 7500 ft 119 kts 52°
2026-04-26 09:17 -30.56424 151.56503 7501 ft 118 kts 52°
2026-04-26 09:17 -30.55899 151.57221 7503 ft 117 kts 52°
2026-04-26 09:18 -30.55368 151.57949 7503 ft 119 kts 52°
2026-04-26 09:18 -30.54657 151.58926 7506 ft 117 kts 51°
2026-04-26 09:18 -30.54299 151.59413 7506 ft 116 kts 52°
2026-04-26 09:18 -30.53773 151.60132 7504 ft 118 kts 52°
2026-04-26 09:19 -30.53242 151.60861 7503 ft 120 kts 52°
2026-04-26 09:19 -30.52610 151.61470 7505 ft 122 kts 30°
2026-04-26 09:19 -30.51774 151.61674 7508 ft 123 kts 12°
2026-04-26 09:19 -30.50913 151.61752 7504 ft 125 kts
2026-04-26 09:20 -30.50044 151.61816 7505 ft 125 kts 10°
2026-04-26 09:20 -30.49174 151.61883 7501 ft 125 kts 10°
2026-04-26 09:20 -30.48320 151.61949 7499 ft 125 kts 10°
2026-04-26 09:20 -30.47449 151.62020 7500 ft 126 kts
2026-04-26 09:21 -30.46575 151.62093 7501 ft 126 kts 11°
2026-04-26 09:21 -30.45710 151.62166 7497 ft 125 kts 11°
2026-04-26 09:21 -30.44836 151.62243 7501 ft 126 kts
2026-04-26 09:21 -30.43962 151.62317 7502 ft 125 kts
2026-04-26 09:22 -30.43096 151.62390 7501 ft 124 kts 11°
2026-04-26 09:22 -30.42241 151.62464 7501 ft 125 kts
2026-04-26 09:22 -30.41377 151.62539 7496 ft 124 kts 11°
2026-04-26 09:22 -30.40513 151.62618 7500 ft 124 kts 11°
2026-04-26 09:23 -30.39650 151.62696 7498 ft 124 kts 10°
2026-04-26 09:23 -30.38785 151.62772 7496 ft 126 kts
2026-04-26 09:23 -30.37911 151.62848 7496 ft 125 kts
2026-04-26 09:23 -30.37059 151.62921 7495 ft 124 kts
2026-04-26 09:24 -30.36192 151.62996 7494 ft 125 kts
2026-04-26 09:24 -30.35324 151.63071 7496 ft 125 kts
2026-04-26 09:24 -30.34448 151.63143 7498 ft 127 kts
2026-04-26 09:24 -30.33590 151.63215 7497 ft 121 kts 11°
2026-04-26 09:25 -30.32746 151.63289 7493 ft 122 kts 12°
2026-04-26 09:25 -30.31897 151.63367 7495 ft 122 kts 11°
2026-04-26 09:25 -30.31047 151.63443 7495 ft 123 kts 11°
2026-04-26 09:25 -30.30201 151.63517 7494 ft 122 kts 11°
2026-04-26 09:26 -30.29351 151.63592 7495 ft 122 kts 11°
2026-04-26 09:26 -30.28513 151.63666 7494 ft 122 kts 11°
2026-04-26 09:26 -30.27665 151.63740 7495 ft 122 kts 11°
2026-04-26 09:26 -30.26819 151.63814 7494 ft 122 kts 11°
2026-04-26 09:27 -30.25973 151.63888 7494 ft 122 kts 11°
2026-04-26 09:27 -30.25125 151.63963 7494 ft 122 kts 11°
2026-04-26 09:27 -30.24279 151.64038 7495 ft 122 kts 11°
2026-04-26 09:27 -30.23441 151.64112 7495 ft 122 kts 11°
2026-04-26 09:28 -30.22591 151.64186 7495 ft 122 kts 11°
2026-04-26 09:28 -30.21745 151.64259 7495 ft 122 kts 11°
2026-04-26 09:28 -30.20899 151.64333 7494 ft 122 kts 11°
2026-04-26 09:28 -30.20053 151.64406 7495 ft 122 kts 11°
2026-04-26 09:29 -30.19207 151.64479 7486 ft 121 kts 11°
2026-04-26 09:29 -30.18374 151.64551 7484 ft 122 kts 11°
2026-04-26 09:29 -30.17526 151.64625 7485 ft 122 kts 11°
2026-04-26 09:29 -30.16679 151.64700 7486 ft 123 kts 11°
2026-04-26 09:30 -30.15828 151.64774 7487 ft 122 kts 11°
2026-04-26 09:30 -30.14978 151.64849 7487 ft 122 kts 11°
2026-04-26 09:30 -30.14127 151.64923 7487 ft 122 kts 11°
2026-04-26 09:30 -30.13289 151.64995 7485 ft 122 kts 11°
2026-04-26 09:31 -30.12439 151.65070 7486 ft 123 kts 11°
2026-04-26 09:31 -30.11590 151.65145 7487 ft 122 kts 11°
2026-04-26 09:31 -30.10743 151.65218 7487 ft 122 kts 11°
2026-04-26 09:31 -30.09894 151.65292 7483 ft 122 kts 11°
2026-04-26 09:32 -30.09047 151.65366 7485 ft 122 kts 11°
2026-04-26 09:32 -30.08197 151.65440 7485 ft 122 kts 11°
2026-04-26 09:32 -30.07349 151.65513 7484 ft 122 kts 11°
2026-04-26 09:32 -30.06504 151.65588 7484 ft 122 kts 11°
2026-04-26 09:33 -30.05659 151.65661 7484 ft 122 kts 11°
2026-04-26 09:33 -30.04822 151.65733 7484 ft 122 kts 11°
2026-04-26 09:33 -30.03979 151.65806 7483 ft 121 kts 11°
2026-04-26 09:33 -30.03137 151.65880 7483 ft 122 kts 11°
2026-04-26 09:34 -30.02291 151.65954 7484 ft 122 kts 11°
2026-04-26 09:34 -30.01445 151.66028 7481 ft 122 kts 11°
2026-04-26 09:34 -30.00595 151.66104 7483 ft 122 kts 11°
2026-04-26 09:34 -29.99754 151.66176 7480 ft 121 kts 11°
2026-04-26 09:35 -29.98908 151.66249 7478 ft 122 kts 11°
2026-04-26 09:35 -29.98071 151.66322 7478 ft 121 kts 11°
2026-04-26 09:35 -29.97228 151.66395 7481 ft 122 kts 11°
2026-04-26 09:35 -29.96385 151.66466 7477 ft 120 kts 12°
2026-04-26 09:36 -29.95547 151.66539 7479 ft 122 kts 11°
2026-04-26 09:36 -29.94700 151.66613 7477 ft 122 kts 12°
2026-04-26 09:36 -29.93854 151.66688 7478 ft 121 kts 11°
2026-04-26 09:36 -29.93008 151.66763 7474 ft 122 kts 12°
2026-04-26 09:37 -29.92162 151.66841 7473 ft 122 kts 11°
2026-04-26 09:37 -29.91320 151.66917 7472 ft 123 kts 11°
2026-04-26 09:37 -29.90468 151.66993 7475 ft 122 kts 11°
2026-04-26 09:37 -29.89614 151.67069 7476 ft 125 kts 12°
2026-04-26 09:38 -29.88748 151.67142 7476 ft 124 kts 11°
2026-04-26 09:38 -29.87897 151.67212 7475 ft 124 kts 12°
2026-04-26 09:38 -29.87033 151.67285 7473 ft 125 kts 12°
2026-04-26 09:38 -29.86169 151.67360 7474 ft 125 kts 12°
2026-04-26 09:39 -29.85304 151.67433 7473 ft 125 kts 12°
2026-04-26 09:39 -29.84440 151.67506 7471 ft 124 kts 12°
2026-04-26 09:39 -29.83576 151.67584 7473 ft 126 kts 11°
2026-04-26 09:39 -29.82706 151.67658 7475 ft 124 kts 11°
2026-04-26 09:40 -29.81848 151.67732 7468 ft 124 kts 11°
2026-04-26 09:40 -29.80984 151.67810 7474 ft 123 kts 11°
2026-04-26 09:40 -29.80124 151.67886 7470 ft 124 kts 12°
2026-04-26 09:40 -29.79266 151.67960 7471 ft 124 kts 12°
2026-04-26 09:41 -29.78417 151.68032 7470 ft 123 kts 12°
2026-04-26 09:41 -29.77561 151.68107 7469 ft 124 kts 12°
2026-04-26 09:41 -29.76702 151.68183 7469 ft 124 kts 12°
2026-04-26 09:41 -29.75838 151.68260 7470 ft 124 kts 12°
2026-04-26 09:42 -29.74974 151.68334 7471 ft 123 kts 12°
2026-04-26 09:42 -29.74126 151.68408 7470 ft 124 kts 12°
2026-04-26 09:42 -29.73264 151.68482 7472 ft 123 kts 12°
2026-04-26 09:42 -29.72405 151.68555 7469 ft 124 kts 12°
2026-04-26 09:43 -29.71540 151.68632 7469 ft 124 kts 11°
2026-04-26 09:43 -29.70682 151.68706 7469 ft 124 kts 12°
2026-04-26 09:43 -29.69823 151.68782 7463 ft 124 kts 12°
2026-04-26 09:43 -29.68968 151.68859 7465 ft 125 kts 12°
2026-04-26 09:44 -29.68097 151.68939 7463 ft 125 kts 13°
2026-04-26 09:44 -29.67252 151.69114 7471 ft 122 kts 20°
2026-04-26 09:44 -29.66420 151.69334 7471 ft 122 kts 20°
2026-04-26 09:44 -29.65597 151.69559 7471 ft 122 kts 21°
2026-04-26 09:45 -29.64767 151.69792 7473 ft 123 kts 22°
2026-04-26 09:45 -29.63942 151.70024 7471 ft 123 kts 21°
2026-04-26 09:45 -29.63108 151.70261 7472 ft 123 kts 20°
2026-04-26 09:45 -29.62275 151.70498 7471 ft 123 kts 20°
2026-04-26 09:46 -29.61443 151.70736 7472 ft 123 kts 21°
2026-04-26 09:46 -29.60605 151.70977 7470 ft 124 kts 20°
2026-04-26 09:46 -29.59768 151.71215 7468 ft 123 kts 22°
2026-04-26 09:46 -29.58946 151.71451 7468 ft 123 kts 21°
2026-04-26 09:47 -29.58118 151.71688 7466 ft 123 kts 22°
2026-04-26 09:47 -29.57283 151.71928 7470 ft 123 kts 21°
2026-04-26 09:47 -29.56453 151.72163 7468 ft 123 kts 22°
2026-04-26 09:47 -29.55627 151.72399 7466 ft 122 kts 21°
2026-04-26 09:48 -29.54801 151.72638 7465 ft 123 kts 22°
2026-04-26 09:48 -29.53967 151.72880 7469 ft 123 kts 21°
2026-04-26 09:48 -29.53144 151.73117 7466 ft 124 kts 22°
2026-04-26 09:48 -29.52304 151.73361 7468 ft 124 kts 21°
2026-04-26 09:49 -29.51469 151.73599 7466 ft 123 kts 22°
2026-04-26 09:49 -29.50633 151.73840 7465 ft 124 kts 23°
2026-04-26 09:49 -29.49803 151.74077 7463 ft 123 kts 22°
2026-04-26 09:49 -29.48975 151.74317 7464 ft 125 kts 21°
2026-04-26 09:50 -29.48139 151.74556 7462 ft 123 kts 22°
2026-04-26 09:50 -29.47310 151.74794 7461 ft 123 kts 21°
2026-04-26 09:50 -29.46473 151.75036 7462 ft 124 kts 20°
2026-04-26 09:50 -29.45637 151.75276 7462 ft 123 kts 22°
2026-04-26 09:51 -29.44810 151.75515 7463 ft 124 kts 22°
2026-04-26 09:51 -29.43974 151.75753 7462 ft 123 kts 21°
2026-04-26 09:51 -29.43142 151.75991 7461 ft 123 kts 22°
2026-04-26 09:51 -29.42306 151.76232 7463 ft 123 kts 22°
2026-04-26 09:52 -29.41493 151.76462 7464 ft 121 kts 23°
2026-04-26 09:52 -29.39821 151.76945 7462 ft 123 kts 24°
2026-04-26 09:52 -29.38983 151.77187 7459 ft 125 kts 22°
2026-04-26 09:53 -29.38142 151.77430 7460 ft 124 kts 23°
2026-04-26 09:53 -29.37316 151.77666 7462 ft 123 kts 24°
2026-04-26 09:53 -29.36484 151.77902 7460 ft 123 kts 24°
2026-04-26 09:53 -29.35650 151.78141 7461 ft 123 kts 24°
2026-04-26 09:54 -29.34817 151.78380 7461 ft 122 kts 24°
2026-04-26 09:54 -29.33991 151.78616 7461 ft 122 kts 23°
2026-04-26 09:54 -29.33159 151.78855 7459 ft 124 kts 24°
2026-04-26 09:54 -29.32323 151.79094 7460 ft 123 kts 23°
2026-04-26 09:55 -29.31494 151.79332 7454 ft 123 kts 23°
2026-04-26 09:55 -29.30669 151.79569 7454 ft 123 kts 24°
2026-04-26 09:55 -29.29844 151.79804 7452 ft 121 kts 23°
2026-04-26 09:55 -29.29012 151.80048 7453 ft 125 kts 23°
2026-04-26 09:56 -29.28170 151.80288 7456 ft 123 kts 23°
2026-04-26 09:56 -29.27353 151.80518 7454 ft 123 kts 24°
2026-04-26 09:56 -29.26526 151.80755 7454 ft 124 kts 23°
2026-04-26 09:56 -29.25689 151.80996 7459 ft 124 kts 23°
2026-04-26 09:57 -29.24855 151.81233 7458 ft 123 kts 22°
2026-04-26 09:57 -29.24020 151.81471 7457 ft 124 kts 22°
2026-04-26 09:57 -29.23194 151.81707 7458 ft 123 kts 22°
2026-04-26 09:57 -29.22363 151.81946 7455 ft 123 kts 24°
2026-04-26 09:58 -29.21529 151.82185 7455 ft 123 kts 22°
2026-04-26 09:58 -29.20688 151.82426 7454 ft 125 kts 23°
2026-04-26 09:58 -29.19849 151.82664 7454 ft 123 kts 24°
2026-04-26 09:58 -29.19018 151.82900 7455 ft 123 kts 24°
2026-04-26 09:59 -29.18182 151.83139 7454 ft 124 kts 22°
2026-04-26 09:59 -29.17628 151.83297 7455 ft 124 kts 22°
2026-04-26 09:59 -29.16518 151.83613 7452 ft 124 kts 22°
2026-04-26 09:59 -29.15678 151.83855 7453 ft 125 kts 22°
2026-04-26 10:00 -29.14834 151.84096 7460 ft 124 kts 22°
2026-04-26 10:00 -29.14001 151.84330 7458 ft 122 kts 24°
2026-04-26 10:00 -29.13165 151.84569 7455 ft 124 kts 24°
2026-04-26 10:00 -29.12333 151.84809 7453 ft 124 kts 24°
2026-04-26 10:01 -29.11496 151.85046 7454 ft 124 kts 24°
2026-04-26 10:01 -29.10660 151.85282 7452 ft 123 kts 23°
2026-04-26 10:01 -29.09824 151.85521 7452 ft 124 kts 22°
2026-04-26 10:01 -29.08995 151.85758 7451 ft 123 kts 22°
2026-04-26 10:02 -29.08161 151.85997 7451 ft 123 kts 23°
2026-04-26 10:02 -29.07333 151.86239 7445 ft 125 kts 24°
2026-04-26 10:02 -29.06498 151.86483 7456 ft 122 kts 23°
2026-04-26 10:02 -29.05667 151.86720 7455 ft 123 kts 24°
2026-04-26 10:03 -29.04829 151.86959 7451 ft 124 kts 24°
2026-04-26 10:03 -29.03988 151.87197 7453 ft 124 kts 23°
2026-04-26 10:03 -29.03153 151.87433 7451 ft 124 kts 24°
2026-04-26 10:03 -29.02315 151.87671 7451 ft 124 kts 24°
2026-04-26 10:04 -29.01489 151.87906 7449 ft 124 kts 22°
2026-04-26 10:04 -29.00651 151.88144 7449 ft 124 kts 23°
2026-04-26 10:04 -28.99816 151.88382 7449 ft 123 kts 23°
2026-04-26 10:04 -28.98980 151.88620 7450 ft 124 kts 22°
2026-04-26 10:05 -28.98141 151.88857 7449 ft 124 kts 23°
2026-04-26 10:05 -28.97303 151.89095 7449 ft 124 kts 24°
2026-04-26 10:05 -28.96462 151.89333 7449 ft 124 kts 24°
2026-04-26 10:05 -28.95635 151.89568 7449 ft 124 kts 23°
2026-04-26 10:06 -28.94798 151.89806 7448 ft 124 kts 25°
2026-04-26 10:06 -28.93955 151.90048 7450 ft 124 kts 24°
2026-04-26 10:06 -28.93122 151.90283 7447 ft 123 kts 22°
2026-04-26 10:06 -28.92285 151.90521 7444 ft 124 kts 25°
2026-04-26 10:07 -28.91732 151.90677 7443 ft 122 kts 26°
2026-04-26 10:07 -28.90908 151.90912 7442 ft 123 kts 25°
2026-04-26 10:07 -28.90078 151.91149 7443 ft 123 kts 23°
2026-04-26 10:07 -28.89250 151.91383 7443 ft 123 kts 25°
2026-04-26 10:08 -28.88424 151.91617 7442 ft 123 kts 24°
2026-04-26 10:08 -28.87596 151.91852 7444 ft 122 kts 22°
2026-04-26 10:08 -28.86778 151.92083 7443 ft 122 kts 24°
2026-04-26 10:08 -28.85675 151.92396 7444 ft 123 kts 23°
2026-04-26 10:09 -28.84849 151.92628 7442 ft 122 kts 24°
2026-04-26 10:09 -28.84287 151.92789 7445 ft 123 kts 26°
2026-04-26 10:09 -28.83472 151.93023 7446 ft 122 kts 25°
2026-04-26 10:09 -28.82649 151.93257 7450 ft 122 kts 24°
2026-04-26 10:10 -28.81820 151.93495 7441 ft 123 kts 24°
2026-04-26 10:10 -28.80990 151.93734 7450 ft 124 kts 24°
2026-04-26 10:10 -28.80161 151.93966 7447 ft 122 kts 24°
2026-04-26 10:10 -28.79336 151.94198 7445 ft 123 kts 24°
2026-04-26 10:11 -28.78503 151.94435 7449 ft 123 kts 24°
2026-04-26 10:11 -28.77668 151.94671 7449 ft 124 kts 24°
2026-04-26 10:11 -28.76841 151.94905 7450 ft 124 kts 24°
2026-04-26 10:11 -28.76009 151.95139 7450 ft 123 kts 24°
2026-04-26 10:12 -28.75172 151.95377 7451 ft 124 kts 25°
2026-04-26 10:12 -28.74338 151.95613 7450 ft 123 kts 24°
2026-04-26 10:12 -28.73506 151.95847 7447 ft 123 kts 24°
2026-04-26 10:12 -28.72672 151.96082 7446 ft 123 kts 24°
2026-04-26 10:13 -28.71836 151.96319 7443 ft 124 kts 24°
2026-04-26 10:13 -28.70996 151.96558 7448 ft 124 kts 23°
2026-04-26 10:13 -28.70165 151.96792 7446 ft 122 kts 24°
2026-04-26 10:13 -28.69344 151.97026 7445 ft 124 kts 24°
2026-04-26 10:14 -28.68503 151.97265 7453 ft 125 kts 24°
2026-04-26 10:14 -28.67663 151.97501 7450 ft 123 kts 24°
2026-04-26 10:14 -28.66829 151.97736 7447 ft 124 kts 24°
2026-04-26 10:14 -28.65987 151.97975 7449 ft 124 kts 24°
2026-04-26 10:15 -28.65162 151.98206 7448 ft 123 kts 24°
2026-04-26 10:15 -28.64327 151.98443 7445 ft 123 kts 24°
2026-04-26 10:15 -28.63494 151.98679 7446 ft 123 kts 24°
2026-04-26 10:15 -28.62660 151.98915 7443 ft 125 kts 23°
2026-04-26 10:16 -28.61774 151.98991 7444 ft 130 kts
2026-04-26 10:16 -28.60880 151.98938 7443 ft 130 kts
2026-04-26 10:16 -28.59977 151.98861 7443 ft 130 kts
2026-04-26 10:16 -28.59071 151.98779 7442 ft 131 kts
2026-04-26 10:17 -28.58163 151.98694 7440 ft 131 kts
2026-04-26 10:17 -28.57257 151.98605 7441 ft 130 kts
2026-04-26 10:17 -28.56349 151.98515 7440 ft 131 kts
2026-04-26 10:17 -28.55437 151.98425 7440 ft 131 kts
2026-04-26 10:18 -28.54539 151.98334 7444 ft 131 kts
2026-04-26 10:18 -28.53633 151.98243 7436 ft 131 kts
2026-04-26 10:18 -28.52723 151.98154 7437 ft 131 kts
2026-04-26 10:18 -28.51811 151.98064 7438 ft 131 kts
2026-04-26 10:19 -28.50902 151.97972 7437 ft 131 kts
2026-04-26 10:19 -28.49992 151.97880 7440 ft 131 kts
2026-04-26 10:19 -28.49085 151.97786 7438 ft 131 kts
2026-04-26 10:19 -28.48188 151.97695 7436 ft 131 kts
2026-04-26 10:20 -28.47275 151.97604 7436 ft 132 kts
2026-04-26 10:20 -28.46361 151.97510 7439 ft 131 kts
2026-04-26 10:20 -28.45453 151.97417 7439 ft 131 kts
2026-04-26 10:20 -28.44539 151.97325 7434 ft 132 kts
2026-04-26 10:21 -28.43618 151.97234 7438 ft 132 kts
2026-04-26 10:21 -28.42721 151.97141 7433 ft 130 kts
2026-04-26 10:21 -28.41821 151.97049 7429 ft 130 kts
2026-04-26 10:21 -28.40913 151.96958 7430 ft 130 kts
2026-04-26 10:22 -28.40012 151.96867 7429 ft 130 kts
2026-04-26 10:22 -28.39112 151.96776 7430 ft 129 kts
2026-04-26 10:22 -28.38214 151.96685 7430 ft 129 kts
2026-04-26 10:22 -28.37325 151.96595 7429 ft 130 kts
2026-04-26 10:23 -28.36420 151.96504 7430 ft 131 kts
2026-04-26 10:23 -28.35522 151.96413 7432 ft 128 kts
2026-04-26 10:23 -28.34628 151.96324 7432 ft 129 kts
2026-04-26 10:23 -28.33732 151.96236 7431 ft 130 kts
2026-04-26 10:24 -28.32830 151.96145 7436 ft 130 kts
2026-04-26 10:24 -28.31929 151.96053 7426 ft 129 kts
2026-04-26 10:24 -28.31046 151.95964 7423 ft 129 kts
2026-04-26 10:24 -28.30148 151.95875 7424 ft 130 kts
2026-04-26 10:25 -28.29246 151.95785 7423 ft 129 kts
2026-04-26 10:25 -28.28349 151.95694 7423 ft 129 kts
2026-04-26 10:25 -28.27448 151.95603 7423 ft 130 kts
2026-04-26 10:25 -28.26543 151.95512 7424 ft 130 kts
2026-04-26 10:26 -28.25653 151.95420 7425 ft 129 kts
2026-04-26 10:26 -28.24756 151.95329 7423 ft 129 kts
2026-04-26 10:26 -28.23855 151.95238 7424 ft 130 kts
2026-04-26 10:26 -28.22953 151.95147 7424 ft 130 kts
2026-04-26 10:27 -28.22051 151.95056 7424 ft 130 kts
2026-04-26 10:27 -28.21161 151.94964 7419 ft 130 kts
2026-04-26 10:27 -28.20261 151.94872 7416 ft 130 kts
2026-04-26 10:27 -28.19353 151.94784 7418 ft 131 kts
2026-04-26 10:28 -28.18441 151.94694 7419 ft 131 kts
2026-04-26 10:28 -28.17535 151.94602 7419 ft 129 kts
2026-04-26 10:28 -28.16648 151.94513 7418 ft 130 kts
2026-04-26 10:28 -28.15740 151.94424 7423 ft 131 kts
2026-04-26 10:29 -28.14833 151.94358 7423 ft 130 kts
2026-04-26 10:29 -28.13932 151.94303 7414 ft 128 kts
2026-04-26 10:29 -28.13035 151.94255 7420 ft 130 kts
2026-04-26 10:29 -28.12145 151.94209 7421 ft 129 kts
2026-04-26 10:30 -28.11247 151.94161 7418 ft 129 kts
2026-04-26 10:30 -28.10352 151.94114 7416 ft 129 kts
2026-04-26 10:30 -28.09448 151.94069 7417 ft 130 kts
2026-04-26 10:30 -28.08545 151.94023 7418 ft 129 kts
2026-04-26 10:31 -28.07651 151.93975 7414 ft 128 kts
2026-04-26 10:31 -28.06756 151.93930 7413 ft 129 kts
2026-04-26 10:31 -28.05864 151.93886 7415 ft 130 kts
2026-04-26 10:31 -28.04964 151.93840 7416 ft 129 kts
2026-04-26 10:32 -28.04068 151.93794 7415 ft 129 kts
2026-04-26 10:32 -28.03174 151.93750 7418 ft 128 kts
2026-04-26 10:32 -28.02292 151.93706 7407 ft 129 kts
2026-04-26 10:32 -28.01394 151.93662 7417 ft 129 kts
2026-04-26 10:33 -28.00504 151.93616 7411 ft 128 kts
2026-04-26 10:33 -27.99607 151.93571 7376 ft 129 kts
2026-04-26 10:33 -27.98726 151.93510 7033 ft 125 kts
2026-04-26 10:33 -27.97858 151.93444 6674 ft 124 kts
2026-04-26 10:34 -27.97010 151.93387 6296 ft 123 kts
2026-04-26 10:34 -27.96155 151.93333 5918 ft 122 kts
2026-04-26 10:34 -27.95300 151.93286 5634 ft 124 kts
2026-04-26 10:34 -27.94437 151.93247 5506 ft 125 kts
2026-04-26 10:35 -27.93570 151.93214 5452 ft 124 kts
2026-04-26 10:35 -27.92705 151.93185 5432 ft 126 kts 10°
2026-04-26 10:35 -27.91840 151.93147 5414 ft 122 kts
2026-04-26 10:35 -27.90978 151.93113 5419 ft 125 kts
2026-04-26 10:36 -27.90107 151.93075 5412 ft 125 kts
2026-04-26 10:36 -27.89238 151.93035 5418 ft 124 kts
2026-04-26 10:36 -27.88368 151.92995 5408 ft 126 kts
2026-04-26 10:36 -27.87491 151.92955 5409 ft 126 kts
2026-04-26 10:37 -27.86624 151.92911 5401 ft 125 kts
2026-04-26 10:37 -27.85748 151.92868 5405 ft 125 kts
2026-04-26 10:37 -27.84872 151.92826 5405 ft 126 kts
2026-04-26 10:37 -27.84013 151.92782 5408 ft 124 kts
2026-04-26 10:38 -27.83144 151.92739 5404 ft 126 kts
2026-04-26 10:38 -27.82270 151.92695 5405 ft 125 kts
2026-04-26 10:38 -27.81398 151.92650 5405 ft 124 kts
2026-04-26 10:38 -27.80544 151.92606 5406 ft 124 kts
2026-04-26 10:39 -27.79676 151.92564 5404 ft 125 kts
2026-04-26 10:39 -27.78804 151.92521 5407 ft 125 kts
2026-04-26 10:39 -27.77934 151.92477 5406 ft 125 kts
2026-04-26 10:39 -27.77050 151.92435 5399 ft 128 kts
2026-04-26 10:40 -27.76153 151.92394 5408 ft 129 kts
2026-04-26 10:40 -27.75269 151.92347 5408 ft 126 kts
2026-04-26 10:40 -27.74404 151.92303 5406 ft 126 kts
2026-04-26 10:40 -27.73528 151.92259 5405 ft 126 kts
2026-04-26 10:41 -27.72644 151.92216 5407 ft 127 kts
2026-04-26 10:41 -27.71769 151.92171 5403 ft 125 kts
2026-04-26 10:41 -27.70895 151.92128 5406 ft 126 kts
2026-04-26 10:41 -27.70023 151.92082 5410 ft 125 kts
2026-04-26 10:42 -27.69162 151.92035 5394 ft 124 kts
2026-04-26 10:42 -27.68291 151.91993 5379 ft 126 kts
2026-04-26 10:42 -27.67426 151.91936 5039 ft 123 kts
2026-04-26 10:42 -27.66575 151.91874 4690 ft 120 kts
2026-04-26 10:43 -27.65727 151.91829 4516 ft 125 kts
2026-04-26 10:43 -27.64840 151.91799 4463 ft 127 kts
2026-04-26 10:43 -27.63966 151.91759 4433 ft 126 kts
2026-04-26 10:43 -27.63093 151.91717 4417 ft 125 kts
2026-04-26 10:44 -27.62242 151.91679 4406 ft 124 kts
2026-04-26 10:44 -27.61383 151.91643 4404 ft 124 kts
2026-04-26 10:44 -27.60512 151.91606 4409 ft 124 kts
2026-04-26 10:44 -27.59641 151.91565 4406 ft 126 kts
2026-04-26 10:45 -27.58769 151.91522 4399 ft 126 kts
2026-04-26 10:45 -27.57891 151.91482 4404 ft 126 kts
2026-04-26 10:45 -27.57011 151.91438 4406 ft 126 kts
2026-04-26 10:45 -27.56141 151.91392 4402 ft 125 kts
2026-04-26 10:46 -27.55263 151.91351 4400 ft 127 kts
2026-04-26 10:46 -27.54380 151.91253 4403 ft 132 kts 355°
2026-04-26 10:46 -27.53518 151.90851 4401 ft 136 kts 342°
2026-04-26 10:46 -27.52665 151.90356 4405 ft 138 kts 340°
2026-04-26 10:47 -27.51821 151.89840 4404 ft 138 kts 340°
2026-04-26 10:47 -27.50985 151.89321 4403 ft 137 kts 340°
2026-04-26 10:47 -27.50188 151.88711 4402 ft 143 kts 320°
2026-04-26 10:47 -27.49668 151.87745 4404 ft 146 kts 295°
2026-04-26 10:48 -27.49328 151.86686 4412 ft 146 kts 289°
2026-04-26 10:48 -27.49017 151.85603 4412 ft 145 kts 288°
2026-04-26 10:48 -27.48711 151.84525 4379 ft 144 kts 287°
2026-04-26 10:48 -27.48419 151.83458 4044 ft 141 kts 286°
2026-04-26 10:49 -27.48132 151.82402 3704 ft 142 kts 287°
2026-04-26 10:49 -27.47691 151.81409 3540 ft 142 kts 309°
2026-04-26 10:49 -27.47067 151.80557 3468 ft 140 kts 315°
2026-04-26 10:49 -27.46404 151.79748 3437 ft 141 kts 318°
2026-04-26 10:50 -27.45727 151.78946 3423 ft 141 kts 318°
2026-04-26 10:50 -27.45279 151.78420 3418 ft 139 kts 317°
2026-04-26 10:50 -27.44376 151.77366 3413 ft 140 kts 318°
2026-04-26 10:50 -27.43705 151.76584 3411 ft 142 kts 319°
2026-04-26 10:51 -27.43023 151.75786 3411 ft 141 kts 319°
2026-04-26 10:51 -27.41667 151.74198 3396 ft 141 kts 319°
2026-04-26 10:51 -27.40986 151.73406 3397 ft 140 kts 317°
2026-04-26 10:52 -27.40313 151.72613 3403 ft 140 kts 316°
2026-04-26 10:52 -27.39741 151.71826 3195 ft 119 kts 296°
2026-04-26 10:52 -27.39676 151.71028 2802 ft 94 kts 242°
2026-04-26 10:52 -27.40066 151.70568 2438 ft 68 kts 178°
2026-04-26 10:53 -27.40384 151.70691 2068 ft 54 kts 114°
2026-04-26 10:53 -27.40488 151.71192 1883 ft 69 kts 106°
2026-04-26 10:53 -27.40534 151.71661 1729 ft 57 kts 106°
2026-04-26 10:54 -27.40691 151.72522 1591 ft 51 kts 109°
2026-04-26 10:54 -27.40745 151.72875 1483 ft 38 kts 114°
2026-04-26 10:54 -27.40789 151.73095 1383 ft 17 kts 114°
2026-04-26 10:54 -27.40801 151.73138 1366 ft 1 kts 105°
2026-04-26 10:55 -27.40800 151.73148 1386 ft 4 kts 104°
2026-04-26 10:55 -27.40827 151.73278 1500 ft 32 kts 102°
2026-04-26 10:55 -27.40883 151.73617 1632 ft 44 kts 101°
2026-04-26 10:55 -27.40899 151.73830 1658 ft 43 kts 82°
2026-04-26 10:56 -27.40541 151.74147 1684 ft 63 kts 14°
2026-04-26 10:56 -27.40073 151.74110 1700 ft 71 kts 323°
2026-04-26 10:56 -27.39719 151.73712 1702 ft 73 kts 282°
2026-04-26 10:56 -27.39595 151.73227 1707 ft 56 kts 264°
2026-04-26 10:57 -27.39536 151.72739 1703 ft 70 kts 260°
2026-04-26 10:57 -27.39531 151.72218 1706 ft 59 kts 230°
2026-04-26 10:57 -27.39768 151.71961 1704 ft 42 kts 175°
2026-04-26 10:57 -27.40055 151.72042 1706 ft 45 kts 135°
2026-04-26 10:58 -27.40250 151.72279 1704 ft 41 kts 132°
2026-04-26 10:58 -27.40407 151.72441 1794 ft 52 kts 128°
2026-04-26 10:58 -27.40545 151.72952 1542 ft 70 kts 102°
2026-04-26 10:58 -27.40605 151.73416 1441 ft 45 kts 104°
2026-04-26 10:59 -27.40644 151.73702 1462 ft 42 kts 100°
2026-04-26 10:59 -27.40679 151.73998 1574 ft 67 kts 95°
2026-04-26 10:59 -27.40401 151.74455 1786 ft 92 kts 17°
2026-04-26 10:59 -27.39750 151.74492 1865 ft 103 kts 316°
2026-04-26 11:00 -27.39364 151.73770 1849 ft 119 kts 266°
2026-04-26 11:00 -27.39113 151.72836 1802 ft 127 kts 271°
2026-04-26 11:00 -27.39166 151.71936 1749 ft 114 kts 206°
2026-04-26 11:00 -27.39819 151.71584 1639 ft 94 kts 158°
2026-04-26 11:01 -27.40272 151.71952 1569 ft 75 kts 109°
2026-04-26 11:01 -27.40456 151.72433 1526 ft 61 kts 99°
2026-04-26 11:01 -27.40537 151.72873 1473 ft 50 kts 97°
2026-04-26 11:01 -27.40577 151.73175 1410 ft 29 kts 102°
2026-04-26 11:02 -27.40598 151.73340 1411 ft 15 kts 100°
2026-04-26 11:02 -27.40612 151.73425 1387 ft 4 kts 100°
2026-04-26 11:02 -27.40636 151.73578 1420 ft 45 kts 100°
2026-04-26 11:02 -27.40682 151.73989 1558 ft 50 kts 81°
2026-04-26 11:03 -27.40400 151.74126 1598 ft 44 kts 14°
2026-04-26 11:03 -27.40155 151.74194 1720 ft 38 kts 19°
2026-04-26 11:03 -27.39848 151.74007 1817 ft 70 kts 283°
2026-04-26 11:03 -27.39673 151.73453 1840 ft 80 kts 271°
2026-04-26 11:04 -27.39510 151.72826 1823 ft 82 kts 275°
2026-04-26 11:04 -27.39443 151.72274 1750 ft 57 kts 217°
2026-04-26 11:04 -27.39749 151.72119 1624 ft 47 kts 176°
2026-04-26 11:04 -27.40080 151.72080 1532 ft 49 kts 178°
2026-04-26 11:05 -27.40325 151.72217 1531 ft 44 kts 110°
2026-04-26 11:05 -27.40444 151.72551 1562 ft 48 kts 108°
2026-04-26 11:05 -27.40537 151.72920 1539 ft 49 kts 106°
2026-04-26 11:05 -27.40582 151.73230 1460 ft 30 kts 108°
2026-04-26 11:06 -27.40611 151.73423 1397 ft 18 kts 114°
2026-04-26 11:06 -27.40627 151.73506 1401 ft 25 kts 98°
2026-04-26 11:06 -27.40414 151.73594 1448 ft 64 kts 306°
2026-04-26 11:06 -27.40281 151.73132 1420 ft 67 kts 261°
2026-04-26 11:07 -27.40286 151.72631 1394 ft 51 kts 251°
2026-04-26 11:07 -27.40339 151.72415 1386 ft 13 kts 207°
2026-04-26 11:07 -27.40335 151.72393 1372 ft 2 kts 207°
2026-04-26 11:07 -27.40339 151.72393 1370 ft 1 kts 233°
2026-04-26 11:08 -27.40341 151.72391 1378 ft 1 kts 288°
2026-04-26 11:08 -27.40339 151.72391 1389 ft 0 kts 289°
2026-04-26 11:08 -27.40339 151.72392 1384 ft 0 kts 289°
2026-04-26 11:08 -27.40339 151.72390 1383 ft 1 kts 289°
2026-04-26 11:09 -27.40362 151.72361 1382 ft 28 kts 111°
2026-04-26 11:09 -27.40545 151.72632 1383 ft 58 kts 126°
2026-04-26 11:09 -27.40769 151.73037 1407 ft 59 kts 109°
2026-04-26 11:09 -27.40825 151.73342 1375 ft 23 kts 114°
2026-04-26 11:10 -27.40939 151.73437 1351 ft 26 kts 155°
2026-04-26 11:10 -27.41088 151.73486 1358 ft 19 kts 179°
2026-04-26 11:10 -27.41203 151.73460 1353 ft 17 kts 174°
2026-04-26 11:10 -27.41295 151.73460 1350 ft 11 kts 136°
2026-04-26 11:11 -27.41319 151.73554 1347 ft 13 kts 105°
2026-04-26 11:11 -27.41331 151.73643 1347 ft 10 kts 103°
2026-04-26 11:11 -27.41344 151.73712 1344 ft 8 kts 100°
2026-04-26 11:11 -27.41349 151.73766 1342 ft 4 kts 100°
2026-04-26 11:12 -27.41348 151.73771 1341 ft 1 kts 101°
2026-04-26 11:12 -27.41347 151.73769 1343 ft 1 kts 101°
2026-04-26 11:12 -27.41346 151.73772 1338 ft 0 kts 101°
2026-04-26 11:35 -27.41349 151.73776 1337 ft 2 kts 352°
2026-04-26 11:35 -27.41308 151.73662 1348 ft 24 kts 279°
2026-04-26 11:35 -27.41281 151.73501 1341 ft 15 kts 281°
2026-04-26 11:35 -27.41215 151.73466 1340 ft 18 kts
2026-04-26 11:36 -27.41126 151.73484 1339 ft 2 kts 10°
2026-04-26 11:36 -27.41115 151.73489 1334 ft 2 kts
2026-04-26 11:36 -27.41090 151.73508 1343 ft 12 kts 52°
2026-04-26 11:36 -27.41105 151.73643 1419 ft 26 kts 107°
2026-04-26 11:37 -27.41155 151.73867 1583 ft 34 kts 99°
2026-04-26 11:37 -27.40985 151.74078 1729 ft 64 kts
2026-04-26 11:37 -27.40415 151.73981 1811 ft 93 kts 324°
2026-04-26 11:37 -27.40141 151.73272 1796 ft 109 kts 269°
2026-04-26 11:38 -27.39937 151.72403 1703 ft 117 kts 271°
2026-04-26 11:38 -27.39729 151.71510 1704 ft 120 kts 274°
2026-04-26 11:38 -27.39415 151.70637 1711 ft 117 kts 297°
2026-04-26 11:38 -27.38948 151.70004 1692 ft 91 kts 310°
2026-04-26 11:39 -27.38835 151.69482 1766 ft 65 kts 223°
2026-04-26 11:39 -27.39244 151.69166 1823 ft 82 kts 195°
2026-04-26 11:39 -27.39835 151.68834 1748 ft 107 kts 200°
2026-04-26 11:39 -27.40508 151.68399 1781 ft 116 kts 204°
2026-04-26 11:40 -27.41171 151.67857 1752 ft 117 kts 209°
2026-04-26 11:40 -27.41797 151.67482 1745 ft 87 kts 142°
2026-04-26 11:40 -27.42236 151.67660 1725 ft 64 kts 95°
2026-04-26 11:40 -27.42362 151.68133 1624 ft 68 kts 60°
2026-04-26 11:41 -27.42117 151.68654 1609 ft 84 kts 58°
2026-04-26 11:42 -27.40788 151.73059 1478 ft 47 kts 104°
2026-04-26 11:43 -27.40834 151.73336 1462 ft 43 kts 101°
2026-04-26 11:43 -27.40923 151.73748 1527 ft 54 kts 117°
2026-04-26 11:43 -27.41252 151.73814 1709 ft 52 kts 191°
2026-04-26 11:43 -27.41420 151.73490 1859 ft 57 kts 287°
2026-04-26 11:44 -27.41332 151.73052 1734 ft 57 kts 285°
2026-04-26 11:44 -27.41220 151.72627 1702 ft 56 kts 279°
2026-04-26 11:44 -27.41063 151.72231 1689 ft 50 kts 349°
2026-04-26 11:44 -27.40797 151.72295 1585 ft 45 kts 47°
2026-04-26 11:45 -27.40752 151.72655 1567 ft 53 kts 97°
2026-04-26 11:45 -27.40787 151.73048 1463 ft 41 kts 101°
2026-04-26 11:45 -27.40822 151.73273 1379 ft 20 kts 102°
2026-04-26 11:45 -27.40850 151.73409 1418 ft 14 kts 105°
2026-04-26 11:46 -27.40873 151.73489 1488 ft 17 kts 109°
2026-04-26 11:46 -27.41065 151.73497 1677 ft 38 kts 184°
2026-04-26 11:46 -27.41250 151.73243 1785 ft 59 kts 272°
2026-04-26 11:46 -27.41203 151.72805 1897 ft 54 kts 281°
2026-04-26 11:47 -27.41109 151.72424 1893 ft 50 kts 287°
2026-04-26 11:47 -27.40947 151.72039 1835 ft 58 kts 347°
2026-04-26 11:47 -27.40681 151.72199 1740 ft 42 kts 105°
2026-04-26 11:47 -27.40731 151.72594 1682 ft 60 kts 101°
2026-04-26 11:48 -27.40788 151.73042 1479 ft 51 kts 100°
2026-04-26 11:48 -27.40826 151.73328 1438 ft 29 kts 108°
2026-04-26 11:48 -27.40862 151.73539 1410 ft 23 kts 108°
2026-04-26 11:48 -27.40809 151.73697 1478 ft 39 kts 31°
2026-04-26 11:49 -27.40489 151.73937 1516 ft 74 kts 34°
2026-04-26 11:49 -27.40034 151.74330 1458 ft 89 kts 38°
2026-04-26 11:49 -27.39559 151.74773 1429 ft 89 kts 41°
2026-04-26 11:49 -27.38986 151.75084 1398 ft 94 kts 22°
2026-04-26 11:50 -27.38422 151.75348 1527 ft 83 kts 36°
2026-04-26 11:50 -27.37921 151.75658 1610 ft 81 kts 34°
2026-04-26 11:50 -27.37352 151.76003 1495 ft 104 kts 20°
2026-04-26 11:50 -27.36611 151.76189 1427 ft 112 kts 13°
2026-04-26 11:51 -27.35853 151.76342 1431 ft 110 kts 13°
2026-04-26 11:51 -27.35169 151.76604 1454 ft 101 kts 27°
2026-04-26 11:51 -27.34563 151.76969 1469 ft 101 kts 27°
2026-04-26 11:51 -27.33907 151.77328 1447 ft 105 kts 31°
2026-04-26 11:52 -27.33281 151.77743 1467 ft 106 kts 34°
2026-04-26 11:52 -27.32837 151.78018 1463 ft 109 kts 27°
2026-04-26 11:52 -27.31968 151.78549 1480 ft 103 kts 45°
2026-04-26 11:52 -27.31702 151.79201 1503 ft 91 kts 77°
2026-04-26 11:53 -27.31555 151.79857 1533 ft 80 kts 105°
2026-04-26 11:53 -27.31724 151.80435 1552 ft 78 kts 110°
2026-04-26 11:53 -27.32121 151.80772 1641 ft 80 kts 185°
2026-04-26 11:54 -27.32263 151.79239 1479 ft 116 kts 281°
2026-04-26 11:54 -27.32119 151.78365 1474 ft 115 kts 285°
2026-04-26 11:54 -27.31904 151.77517 1506 ft 109 kts 263°
2026-04-26 11:54 -27.31928 151.76715 1506 ft 94 kts 264°
2026-04-26 11:55 -27.31981 151.76054 1563 ft 74 kts 234°
2026-04-26 11:55 -27.32326 151.75718 1554 ft 58 kts 189°
2026-04-26 11:55 -27.32737 151.75556 1522 ft 68 kts 184°
2026-04-26 11:55 -27.33175 151.75369 1460 ft 66 kts 210°
2026-04-26 11:56 -27.33547 151.75126 1467 ft 57 kts 206°
2026-04-26 11:56 -27.33833 151.74861 1485 ft 50 kts 232°
2026-04-26 11:56 -27.34060 151.74597 1482 ft 44 kts 225°
2026-04-26 11:56 -27.34240 151.74345 1480 ft 39 kts 226°
2026-04-26 11:57 -27.34376 151.74093 1590 ft 37 kts 225°
2026-04-26 11:57 -27.34475 151.73834 1534 ft 35 kts 243°
2026-04-26 11:57 -27.34546 151.73570 1453 ft 42 kts 256°
2026-04-26 11:57 -27.34619 151.73183 1399 ft 55 kts 263°
2026-04-26 11:58 -27.34722 151.72623 1412 ft 93 kts 235°
2026-04-26 11:58 -27.35261 151.72312 1413 ft 88 kts 192°
2026-04-26 11:58 -27.35840 151.72365 1425 ft 80 kts 165°
2026-04-26 11:58 -27.36377 151.72421 1399 ft 76 kts 182°
2026-04-26 11:59 -27.36859 151.72382 1377 ft 64 kts 191°
2026-04-26 11:59 -27.37246 151.72313 1372 ft 51 kts 186°
2026-04-26 11:59 -27.37579 151.72249 1377 ft 45 kts 192°
2026-04-26 11:59 -27.38001 151.72167 1365 ft 77 kts 192°
2026-04-26 12:00 -27.38575 151.72067 1381 ft 87 kts 189°
2026-04-26 12:00 -27.39033 151.71976 1774 ft 56 kts 192°
2026-04-26 12:00 -27.39488 151.71840 1748 ft 83 kts 186°
2026-04-26 12:00 -27.40115 151.71760 1625 ft 90 kts 144°
2026-04-26 12:01 -27.40445 151.72289 1576 ft 81 kts 122°
2026-04-26 12:01 -27.40712 151.72760 1518 ft 62 kts 108°
2026-04-26 12:01 -27.40795 151.73136 1465 ft 37 kts 105°
2026-04-26 12:01 -27.40826 151.73318 1450 ft 11 kts 97°
2026-04-26 12:02 -27.40873 151.73505 1509 ft 49 kts 101°
2026-04-26 12:02 -27.40939 151.73772 1528 ft 52 kts 103°
2026-04-26 12:02 -27.41273 151.74018 1764 ft 49 kts 188°
2026-04-26 12:02 -27.41562 151.73879 1818 ft 42 kts 274°
2026-04-26 12:03 -27.41532 151.73548 1719 ft 48 kts 284°
2026-04-26 12:03 -27.41398 151.73069 1727 ft 76 kts 282°
2026-04-26 12:03 -27.41161 151.72381 1517 ft 132 kts 289°
2026-04-26 12:03 -27.40565 151.72095 1431 ft 90 kts 79°
2026-04-26 12:04 -27.40718 151.72748 1406 ft 94 kts 106°
2026-04-26 12:04 -27.40862 151.73487 1360 ft 99 kts 102°
2026-04-26 12:04 -27.41119 151.74187 1405 ft 100 kts 165°
2026-04-26 12:04 -27.41815 151.73977 1563 ft 115 kts 225°
2026-04-26 12:05 -27.41864 151.73040 1585 ft 129 kts 279°
2026-04-26 12:05 -27.41740 151.72023 1543 ft 137 kts 278°
2026-04-26 12:05 -27.41290 151.71385 1527 ft 91 kts 24°
2026-04-26 12:05 -27.40888 151.71716 1422 ft 67 kts 95°
2026-04-26 12:06 -27.40829 151.72266 1431 ft 71 kts 85°
2026-04-26 12:06 -27.40771 151.72747 1449 ft 46 kts 99°
2026-04-26 12:06 -27.40789 151.73027 1430 ft 28 kts 104°
2026-04-26 12:06 -27.40811 151.73191 1414 ft 13 kts 102°
2026-04-26 12:07 -27.40846 151.73380 1432 ft 44 kts 102°
2026-04-26 12:07 -27.40956 151.73788 1618 ft 68 kts 106°
2026-04-26 12:07 -27.41212 151.74306 1694 ft 84 kts 148°
2026-04-26 12:07 -27.41799 151.74173 1832 ft 91 kts 199°
2026-04-26 12:08 -27.42146 151.73697 1866 ft 79 kts 293°
2026-04-26 12:08 -27.42059 151.73074 1863 ft 86 kts 299°
2026-04-26 12:08 -27.41845 151.72382 1900 ft 99 kts 286°
2026-04-26 12:08 -27.41535 151.71651 1880 ft 110 kts 296°
2026-04-26 12:09 -27.40981 151.71321 1796 ft 85 kts 20°
2026-04-26 12:09 -27.40556 151.71595 1795 ft 65 kts 87°
2026-04-26 12:09 -27.40622 151.72055 1810 ft 60 kts 105°
2026-04-26 12:09 -27.40695 151.72505 1698 ft 56 kts 105°
2026-04-26 12:10 -27.40753 151.72908 1586 ft 45 kts 102°
2026-04-26 12:10 -27.40795 151.73166 1482 ft 19 kts 106°
2026-04-26 12:10 -27.40809 151.73248 1435 ft 6 kts 105°
2026-04-26 12:10 -27.40819 151.73284 1412 ft 3 kts 106°
2026-04-26 12:11 -27.40815 151.73289 1414 ft 3 kts 105°
2026-04-26 12:11 -27.40849 151.73273 1413 ft 21 kts 162°
2026-04-26 12:11 -27.41041 151.73241 1413 ft 30 kts 186°
2026-04-26 12:11 -27.41192 151.73267 1371 ft 19 kts 141°
2026-04-26 12:12 -27.41236 151.73313 1361 ft 4 kts
2026-04-26 12:12 -27.41247 151.73331 1357 ft 11 kts 93°
2026-04-26 12:12 -27.41300 151.73429 1358 ft 17 kts 108°
2026-04-26 12:12 -27.41313 151.73513 1349 ft 16 kts 106°
2026-04-26 12:13 -27.41332 151.73643 1358 ft 12 kts 101°
2026-04-26 12:13 -27.41364 151.73725 1348 ft 10 kts 116°
2026-04-26 12:13 -27.41381 151.73761 1344 ft 1 kts 104°
2026-04-26 12:13 -27.41381 151.73767 1339 ft 1 kts 104°
2026-04-26 12:14 -27.41382 151.73769 1339 ft 2 kts 103°
2026-04-26 12:14 -27.41383 151.73776 1342 ft 0 kts 103°
2026-04-26 12:14 -27.41383 151.73778 1337 ft 0 kts 104°